Jonesville, VA

6:51 PM EDT on September 19, 2017 (GMT -0400)
Jonesville

Weather History for K0VG - January, 2013

Change the Weather History Date:

Tuesday, January 8, 2013

  Actual Average (KLNP) Record (KLNP)
Temperature  
Mean Temperature 36 °F -  
Max Temperature 53 °F 40 °F 66 °F (2008)
Min Temperature 19 °F 24 °F -2 °F (2015)
Degree Days  
Heating Degree Days 29    
Moisture  
Dew Point 26 °F    
Average Humidity 81    
Maximum Humidity 100    
Minimum Humidity 38    
Precipitation  
Precipitation 0.00 in - - ()
Sea Level Pressure  
Sea Level Pressure 30.35 in    
Wind  
Wind Speed 0 mph (North)    
Max Wind Speed 4 mph    
Max Gust Speed -    
Visibility 10 miles    
Events      
Averages and records for this station are not official NWS values.
T = Trace of Precipitation, MM = Missing Value Source: NWS Daily Summary

Daily Weather History Graph

Daily Weather History Graph

Search for Another Location

Airport or City:

Trip Planner

Search our weather history database for the weather conditions in past years. The results will help you decide how hot, cold, wet, or windy it might be!

Date:

Astronomy

Jan. 08, 2013 Rise Set
Actual Time 7:45 AM EST 5:34 PM EST
Civil Twilight 7:17 AM EST 6:02 PM EST
Nautical Twilight 6:45 AM EST 6:34 PM EST
Astronomical Twilight 6:13 AM EST 7:05 PM EST
Moon 4:17 AM EST (1/8) 2:35 PM EST (1/8)
Length of Visible Light 10h 45m
Length of Day
9h 48m
Waning Crescent, 14% of the Moon is Illuminated
Jan 8
Waning Crescent
Jan 11
New
Jan 18
First Quarter
Jan 26
Full
Feb 3
Last Quarter

Hourly Weather History & Observations

Time (EST) Temp. Windchill Dew Point Humidity Pressure Visibility Wind Dir Wind Speed Gust Speed Precip Events Conditions
12:15 AM 24.8 °F - 24.8 °F 100% 30.32 in 10.0 mi Calm Calm - N/A   Clear
12:35 AM 24.8 °F - 23.0 °F 93% 30.32 in 10.0 mi Calm Calm - N/A   Clear
12:55 AM 23.0 °F - 21.2 °F 93% 30.32 in 9.0 mi Calm Calm - N/A   Clear
1:15 AM 23.0 °F - 23.0 °F 100% 30.32 in 10.0 mi Calm Calm - N/A   Clear
1:35 AM 21.2 °F - 19.4 °F 93% 30.32 in 9.0 mi Calm Calm - N/A   Clear
1:55 AM 23.0 °F - 23.0 °F 100% 30.33 in 10.0 mi Calm Calm - N/A   Clear
2:15 AM 21.2 °F - 19.4 °F 93% 30.33 in 10.0 mi Calm Calm - N/A   Clear
2:35 AM 23.0 °F - 21.2 °F 93% 30.34 in 10.0 mi Calm Calm - N/A   Clear
2:55 AM 21.2 °F - 19.4 °F 93% 30.33 in 10.0 mi Calm Calm - N/A   Clear
3:15 AM 21.2 °F - 19.4 °F 93% 30.32 in 10.0 mi Calm Calm - N/A   Clear
3:35 AM 21.2 °F - 19.4 °F 93% 30.32 in 10.0 mi Calm Calm - N/A   Clear
3:55 AM 23.0 °F - 21.2 °F 93% 30.32 in 10.0 mi Calm Calm - N/A   Clear
4:15 AM 21.2 °F - 19.4 °F 93% 30.33 in 10.0 mi Calm Calm - N/A   Clear
4:35 AM 23.0 °F - 19.4 °F 86% 30.33 in 10.0 mi Calm Calm - N/A   Clear
4:55 AM 19.4 °F - 17.6 °F 93% 30.33 in 10.0 mi Calm Calm - N/A   Clear
5:15 AM 21.2 °F - 19.4 °F 93% 30.33 in 10.0 mi Calm Calm - N/A   Clear
5:35 AM 19.4 °F - 17.6 °F 93% 30.32 in 10.0 mi Calm Calm - N/A   Clear
5:55 AM 21.2 °F - 19.4 °F 93% 30.33 in 10.0 mi Calm Calm - N/A   Clear
6:15 AM 19.4 °F - 17.6 °F 93% 30.34 in 10.0 mi Calm Calm - N/A   Clear
6:35 AM 19.4 °F - 19.4 °F 100% 30.34 in 10.0 mi Calm Calm - N/A   Clear
6:55 AM 19.4 °F - 17.6 °F 93% 30.35 in 10.0 mi Calm Calm - N/A   Clear
7:15 AM 19.4 °F - 17.6 °F 93% 30.37 in 10.0 mi Calm Calm - N/A   Clear
7:35 AM 19.4 °F - 17.6 °F 93% 30.37 in 10.0 mi Calm Calm - N/A   Clear
7:55 AM 21.2 °F - 19.4 °F 93% 30.38 in 9.0 mi Calm Calm - N/A   Clear
8:15 AM 19.4 °F - 19.4 °F 100% 30.39 in 9.0 mi Calm Calm - N/A   Clear
8:35 AM 23.0 °F - 19.4 °F 86% 30.41 in 9.0 mi Calm Calm - N/A   Clear
8:55 AM 23.0 °F - 21.2 °F 93% 30.42 in 9.0 mi Calm Calm - N/A   Clear
9:15 AM 24.8 °F - 23.0 °F 93% 30.41 in 8.0 mi Calm Calm - N/A   Clear
9:35 AM 26.6 °F - 24.8 °F 93% 30.43 in 10.0 mi Calm Calm - N/A   Clear
9:55 AM 30.2 °F - 26.6 °F 86% 30.43 in 10.0 mi Calm Calm - N/A   Clear
10:15 AM 32.0 °F - 26.6 °F 80% 30.43 in 10.0 mi Calm Calm - N/A   Clear
10:35 AM 32.0 °F - 28.4 °F 87% 30.42 in 10.0 mi Calm Calm - N/A   Clear
10:55 AM 33.8 °F - 28.4 °F 81% 30.43 in 10.0 mi Calm Calm - N/A   Partly Cloudy
11:15 AM 35.6 °F - 28.4 °F 75% 30.42 in 10.0 mi Calm Calm - N/A   Mostly Cloudy
11:35 AM 39.2 °F - 30.2 °F 70% 30.41 in 10.0 mi Calm Calm - N/A   Scattered Clouds
11:55 AM 41.0 °F - 30.2 °F 65% 30.40 in 10.0 mi Calm Calm - N/A   Partly Cloudy
12:15 PM 44.6 °F - 28.4 °F 53% 30.39 in 10.0 mi Calm Calm - N/A   Partly Cloudy
12:55 PM 46.4 °F - 26.6 °F 46% 30.36 in 10.0 mi Calm Calm - N/A   Partly Cloudy
1:55 PM 50.0 °F - 28.4 °F 43% 30.34 in 10.0 mi Calm Calm - N/A   Mostly Cloudy
2:15 PM 50.0 °F - 28.4 °F 43% 30.33 in 10.0 mi Calm Calm - N/A   Mostly Cloudy
2:55 PM 51.8 °F - 28.4 °F 41% 30.33 in 10.0 mi South 3.5 mph - N/A   Mostly Cloudy
3:15 PM 53.6 °F - 28.4 °F 38% 30.34 in 10.0 mi Calm Calm - N/A   Mostly Cloudy
3:35 PM 53.6 °F - 30.2 °F 41% 30.34 in 10.0 mi Calm Calm - N/A   Scattered Clouds
3:55 PM 53.6 °F - 32.0 °F 44% 30.33 in 10.0 mi WSW 3.5 mph - N/A   Partly Cloudy
4:15 PM 53.6 °F - 32.0 °F 44% 30.33 in 10.0 mi Calm Calm - N/A   Clear
4:35 PM 53.6 °F - 32.0 °F 44% 30.32 in 10.0 mi Calm Calm - N/A   Clear
4:55 PM 51.8 °F - 32.0 °F 47% 30.32 in 10.0 mi Calm Calm - N/A   Clear
5:15 PM 50.0 °F - 32.0 °F 50% 30.32 in 10.0 mi Calm Calm - N/A   Clear
5:35 PM 46.4 °F - 32.0 °F 57% 30.32 in 10.0 mi Calm Calm - N/A   Clear
5:55 PM 41.0 °F - 32.0 °F 70% 30.32 in 10.0 mi Calm Calm - N/A   Clear
6:15 PM 41.0 °F - 32.0 °F 70% 30.31 in 10.0 mi Calm Calm - N/A   Clear
6:35 PM 39.2 °F 37.0 °F 32.0 °F 75% 30.32 in 10.0 mi NNE 3.5 mph - N/A   Clear
6:55 PM 39.2 °F - 32.0 °F 75% 30.32 in 10.0 mi Calm Calm - N/A   Unknown
7:15 PM 35.6 °F - 32.0 °F 87% 30.32 in 10.0 mi Calm Calm - N/A   Unknown
7:35 PM 35.6 °F - 32.0 °F 87% 30.33 in 10.0 mi Calm Calm - N/A   Unknown
7:55 PM 35.6 °F - 32.0 °F 87% 30.34 in 10.0 mi Calm Calm - N/A   Unknown
8:15 PM 33.8 °F - 32.0 °F 93% 30.34 in 10.0 mi Calm Calm - N/A   Unknown
8:35 PM 32.0 °F 28.7 °F 30.2 °F 93% 30.33 in 10.0 mi NNE 3.5 mph - N/A   Unknown
8:55 PM 32.0 °F 28.7 °F 32.0 °F 100% 30.33 in 10.0 mi NNE 3.5 mph - N/A   Unknown
9:15 PM 33.8 °F - 32.0 °F 93% 30.33 in 10.0 mi Calm Calm - N/A   Unknown
9:35 PM 32.0 °F - 32.0 °F 100% 30.33 in 10.0 mi Calm Calm - N/A   Unknown
9:55 PM 32.0 °F - 28.4 °F 87% 30.34 in 10.0 mi Calm Calm - N/A   Unknown
10:15 PM 32.0 °F - 30.2 °F 93% 30.34 in 10.0 mi Calm Calm - N/A   Unknown
10:35 PM 32.0 °F - 30.2 °F 93% 30.34 in 10.0 mi Calm Calm - N/A   Unknown
10:55 PM 32.0 °F - 30.2 °F 93% 30.34 in 10.0 mi Calm Calm - N/A   Unknown
11:15 PM 30.2 °F - 28.4 °F 93% 30.34 in 10.0 mi Calm Calm - N/A   Unknown
11:35 PM 30.2 °F - 28.4 °F 93% 30.33 in 10.0 mi Calm Calm - N/A   Clear
11:55 PM 32.0 °F - 28.4 °F 87% 30.34 in 10.0 mi Calm Calm - N/A   Clear